ATLAS CENTAUR 2 DEB, 3741

Orbit data source: Space-Track

ATLAS CENTAUR 2 DEB, 3741 is space debris in LEO originally from a launch on Wed, 27 Nov 1963 UTC launched from the Air Force Eastern Test Range (AFETR). Debris objects in space refer to the collection of defunct objects orbiting the Earth. Examples of debris include non-operational satellites, rocket bodies, and fragments generated from explosions, collisions, or faulty payload assembly.

Loading next visibility...
Identifier
3741, 1963-047L
Orbit
LEO
Last TLE update
19 hours ago
Origin
Manufacturer
Unknown
Mission
Spacecraft
Bus & Motor
Unknown
Mass
Unknown
Launch date (UTC)
1963-11-27 (61 years ago)
Launch vehicle
Unknown
Launch site
Air Force Eastern Test Range (AFETR)
Object type
Payload
Rocket body
Debris
Shape & HBR
Unknown
Radar Cross Section
Small (<0.1 m²)

Expand to show TLE details & history

TLE from 19 hours ago
0 ATLAS CENTAUR 2 DEB
1 03741U 63047L   25128.47992097  .00008880  00000-0  18556-2 0  9991
2 03741  29.8781 235.1964 0255832 144.5097 217.2812 14.40063875854285
Epoch: 2025-05-08T11:31Z
Definitive object data (Epoch: 2025-05-08T11:31:05.171Z)
Latitude
-0.00002°
Longitude
-164.12499°
Altitude
903.629 km
Speed
7.326 km/s
True Right ascension
15h 40m 47s
True Declination
0° 00' 00"
Sunlit
Object was in full shadow at TLE epoch
Visualization TLE readout
Latitude
17.37655°
Longitude
-21.54485°
Altitude
575.509 km
Speed
7.672 km/s
Apparent Right ascension
01h 47m 36s
Apparent Declination
-10° 02' 05"
Sunlit
Object is in daylight
Visualization observer readout
Local Sidereal Time
14:37:15
Azimuth
23.645° NE
Elevation
-58.147°
Doppler factor
1
Orbital elements
Apogee altitude
944.843 km
Perigee altitude
579.499 km
Semi-major axis
7,140.308 km
Eccentricity
0.0255832
Inclination
29.8781°
RAAN
235.1964°
Arg. of periapsis
144.5097°
True anomaly
215.54981°
Mean anomaly
217.2812°
Eccentric anomaly
216.41113°
Mean motion
3.59723 °/min
BSTAR
0.0018556
Orbital period
100.08 mins
Loading maneuver chart data...
Loading SW <> Apogee altitude chart data...

ATLAS CENTAUR 2 DEB Visibility forecast

Observer location: undefined°, undefined°

Span
Click to sort rows by Start time (UTC) header in descending order
Start Az.
Max El. time (UTC)
Max El. Az.
Max El.
End time (UTC)
End Az.
7 mins2025-05-09 11:03:25.523Z210.414° SW2025-05-09 11:07:25.523Z163.233° S18.177°2025-05-09 11:10:25.523Z124.933° SE
6 mins2025-05-09 12:50:25.523Z217.822° SW2025-05-09 12:52:25.523Z185.747° SSW22.833°2025-05-09 12:56:25.523Z126.322° SE
4 mins2025-05-09 14:36:25.523Z220.32° SW2025-05-09 14:38:25.523Z188.416° SSW17.47°2025-05-09 14:40:25.523Z158.427° S
|